TimeCST,TemperatureF,Dew PointF,Humidity,Sea Level PressureIn,VisibilityMPH,Wind Direction,Wind SpeedMPH,Gust SpeedMPH,PrecipitationIn,Events,Conditions,WindDirDegrees,DateUTC
12:19 AM,41.0,35.6,81,30.36,1.8,Calm,Calm,-,N/A,,Haze,0,2012-11-29 06:19:00
12:25 AM,41.0,37.4,87,30.36,2.5,Calm,Calm,-,N/A,,Clear,0,2012-11-29 06:25:00
12:35 AM,41.0,35.6,81,30.36,1.5,Calm,Calm,-,N/A,,Haze,0,2012-11-29 06:35:00
12:44 AM,41.0,35.6,81,30.36,2.5,Calm,Calm,-,N/A,,Haze,0,2012-11-29 06:44:00
12:58 AM,41.0,36.0,82,30.36,2.5,Calm,Calm,-,N/A,,Haze,0,2012-11-29 06:58:00
1:58 AM,39.9,35.1,83,30.36,2.0,Calm,Calm,-,0.00,,Haze,0,2012-11-29 07:58:00
2:06 AM,39.2,35.6,87,30.35,2.0,Calm,Calm,-,N/A,,Haze,0,2012-11-29 08:06:00
2:11 AM,41.0,35.6,81,30.35,1.5,Calm,Calm,-,N/A,,Haze,0,2012-11-29 08:11:00
2:19 AM,41.0,37.4,87,30.35,0.5,Calm,Calm,-,N/A,Fog,Fog,0,2012-11-29 08:19:00
2:58 AM,42.1,37.9,85,30.35,0.2,Calm,Calm,-,0.00,Fog,Fog,0,2012-11-29 08:58:00
3:58 AM,41.0,37.0,86,30.36,0.2,Calm,Calm,-,0.01,Fog,Fog,0,2012-11-29 09:58:00
4:58 AM,41.0,36.0,82,30.36,0.2,Calm,Calm,-,0.00,,Haze,0,2012-11-29 10:58:00
5:58 AM,41.0,36.0,82,30.38,0.2,Calm,Calm,-,0.00,Rain,Light Rain,0,2012-11-29 11:58:00
6:58 AM,42.1,37.0,82,30.39,0.2,Calm,Calm,-,0.00,Rain,Light Rain,0,2012-11-29 12:58:00
7:58 AM,44.1,39.0,82,30.40,0.2,Calm,Calm,-,0.00,Rain,Light Rain,0,2012-11-29 13:58:00
8:16 AM,44.6,39.2,81,30.41,1.2,Calm,Calm,-,0.00,,Haze,0,2012-11-29 14:16:00
8:36 AM,46.4,39.2,76,30.42,2.0,Calm,Calm,-,0.00,,Haze,0,2012-11-29 14:36:00
8:58 AM,48.0,42.1,80,30.43,3.0,Calm,Calm,-,0.00,,Haze,0,2012-11-29 14:58:00
9:58 AM,53.1,44.1,71,30.43,5.0,Calm,Calm,-,N/A,,Haze,0,2012-11-29 15:58:00
10:58 AM,61.0,46.0,58,30.41,9.0,Calm,Calm,-,N/A,,Mostly Cloudy,0,2012-11-29 16:58:00
11:49 AM,69.8,44.6,40,30.37,10.0,Variable,3.5,-,N/A,,Mostly Cloudy,0,2012-11-29 17:49:00
11:58 AM,68.0,46.0,45,30.37,10.0,ESE,4.6,-,N/A,,Scattered Clouds,110,2012-11-29 17:58:00
12:58 PM,71.1,46.0,41,30.34,10.0,SSE,4.6,-,N/A,,Mostly Cloudy,150,2012-11-29 18:58:00
1:58 PM,71.1,46.0,41,30.32,10.0,East,5.8,-,N/A,,Overcast,100,2012-11-29 19:58:00
2:58 PM,68.0,46.0,45,30.30,10.0,Calm,Calm,-,N/A,,Overcast,0,2012-11-29 20:58:00
3:58 PM,64.0,46.9,54,30.31,10.0,Calm,Calm,-,N/A,,Clear,0,2012-11-29 21:58:00
4:58 PM,54.0,46.9,77,30.31,10.0,Calm,Calm,-,N/A,,Clear,0,2012-11-29 22:58:00
5:58 PM,51.1,44.1,77,30.32,6.0,Calm,Calm,-,N/A,,Haze,0,2012-11-29 23:58:00
6:58 PM,48.0,42.1,80,30.33,6.0,Calm,Calm,-,N/A,,Haze,0,2012-11-30 00:58:00
7:58 PM,46.9,39.9,77,30.33,5.0,Calm,Calm,-,N/A,,Haze,0,2012-11-30 01:58:00
8:58 PM,50.0,44.1,80,30.34,6.0,Calm,Calm,-,N/A,,Haze,0,2012-11-30 02:58:00
9:58 PM,52.0,46.0,80,30.34,6.0,Calm,Calm,-,0.00,,Haze,0,2012-11-30 03:58:00
10:58 PM,55.0,45.0,69,30.32,10.0,NNE,3.5,-,N/A,,Mostly Cloudy,20,2012-11-30 04:58:00
11:58 PM,48.0,42.1,80,30.31,3.0,Calm,Calm,-,N/A,,Haze,0,2012-11-30 05:58:00